EW1565 Weather Reports


Display with metric or nautical units.
time (UTC)temp
F
wind
direction
speed
MPH
gust
MPH
rain 1hr
in
rain 24hr
in
rain mn
in
humidity
%
barometer
mb
20191213053124 56 176 0.0 1.0 0.00 0.00 0.00 94 1022.5
20191213051702 56 176 0.0 1.0 0.00 0.00 0.00 95 1022.5
20191213050327 56 176 0.0 2.0 0.00 0.00 0.00 95 1022.3
20191213044650 56 176 0.0 1.0 0.00 0.00 0.00 94 1022.3
20191213043210 57 176 0.0 0.0 0.00 0.00 0.00 94 1022.2
20191213041658 57 176 0.0 1.0 0.00 0.00 0.00 94 1022.1
20191213040231 57 176 0.0 0.0 0.00 0.00 0.00 94 1022.0
20191213034653 58 230 1.0 2.0 0.00 0.00 0.00 94 1021.9
20191213033207 58 240 0.0 2.0 0.00 0.00 0.00 94 1022.1
20191213031653 58 240 0.0 0.0 0.00 0.00 0.00 94 1021.9
20191213030136 58 240 0.0 1.0 0.00 0.00 0.00 93 1021.8
20191213024753 58 240 0.0 1.0 0.00 0.00 0.00 93 1021.9
20191213023157 59 240 0.0 1.0 0.00 0.00 0.00 93 1022.0
20191213021640 59 240 0.0 1.0 0.00 0.00 0.00 92 1021.9
20191213020102 59 240 0.0 2.0 0.00 0.00 0.00 92 1021.8
20191213014652 60 240 0.0 1.0 0.00 0.00 0.00 92 1021.9
20191213013118 60 240 0.0 3.0 0.00 0.00 0.00 91 1021.8
20191213011628 60 229 1.0 4.0 0.00 0.00 0.00 91 1021.8
20191213010131 60 211 2.0 5.0 0.00 0.00 0.00 90 1021.5
20191213004555 61 221 3.0 8.0 0.00 0.00 0.00 89 1021.3
20191213003215 61 192 2.0 5.0 0.00 0.00 0.00 88 1021.4
20191213001625 62 202 4.0 8.0 0.00 0.00 0.00 87 1021.3
20191213000231 62 248 4.0 9.0 0.00 0.00 0.00 86 1021.3
20191212234556 63 214 2.0 8.0 0.00 0.00 0.00 86 1021.4
20191212233236 63 221 4.0 8.0 0.00 0.00 0.00 84 1021.5
20191212231630 64 222 4.0 8.0 0.00 0.00 0.00 83 1021.6
20191212230210 64 226 2.0 7.0 0.00 0.00 0.00 82 1021.5
20191212224707 65 200 2.0 6.0 0.00 0.00 0.00 81 1021.7
20191212223106 64 146 2.0 7.0 0.00 0.00 0.00 81 1021.8
20191212221556 64 215 1.0 7.0 0.00 0.00 0.00 82 1021.8
20191212220129 64 241 4.0 10.0 0.00 0.00 0.00 84 1021.8
20191212214556 63 217 7.0 10.0 0.00 0.00 0.00 83 1021.8
20191212213040 65 219 4.0 11.0 0.00 0.00 0.00 83 1022.0
20191212211542 64 193 6.0 10.0 0.00 0.00 0.00 83 1022.0
20191212210058 64 210 3.0 10.0 0.00 0.00 0.00 83 1022.4
20191212203024 64 225 5.0 10.0 0.00 0.00 0.00 84 1022.6
20191212201605 64 212 4.0 8.0 0.00 0.00 0.00 84 1023.1
20191212200026 64 236 5.0 9.0 0.00 0.00 0.00 84 1023.4
20191212194548 63 209 5.0 10.0 0.00 0.00 0.00 84 1023.7
20191212193038 63 221 5.0 8.0 0.00 0.00 0.00 84 1023.8
20191212191515 63 220 4.0 7.0 0.00 0.00 0.00 83 1024.2
20191212190012 63 212 4.0 6.0 0.00 0.01 0.00 83 1024.3
20191212184514 64 219 1.0 5.0 0.00 0.01 0.00 84 1024.5
20191212183033 62 221 2.0 6.0 0.00 0.01 0.00 86 1024.6
20191212181556 61 238 4.0 5.0 0.00 0.01 0.00 87 1024.8
20191212180035 62 217 1.0 4.0 0.00 0.01 0.00 88 1024.8
20191212174515 62 144 1.0 3.0 0.00 0.01 0.00 86 1024.8
20191212173004 62 88 0.0 2.0 0.00 0.01 0.00 86 1024.9
20191212171505 60 88 1.0 2.0 0.00 0.01 0.00 87 1024.7
20191212170241 59 88 1.0 2.0 0.00 0.01 0.00 88 1024.6
20191212164757 58 90 0.0 2.0 0.00 0.01 0.00 90 1024.5
20191212163205 56 89 1.0 2.0 0.00 0.01 0.00 90 1024.3
20191212161730 55 21 2.0 4.0 0.00 0.01 0.00 91 1024.1
20191212160241 53 5 1.0 2.0 0.00 0.01 0.00 93 1024.2
20191212154802 51 5 0.0 1.0 0.00 0.01 0.00 93 1024.3
20191212153134 51 5 0.0 2.0 0.00 0.01 0.00 94 1024.2
20191212151658 50 93 0.0 0.0 0.00 0.01 0.00 94 1024.0
20191212150219 50 104 0.0 1.0 0.00 0.01 0.00 94 1023.7
20191212144738 51 104 0.0 3.0 0.00 0.01 0.00 94 1023.6
20191212143158 50 115 2.0 3.0 0.00 0.01 0.00 94 1023.5
20191212141650 50 116 0.0 2.0 0.00 0.01 0.00 94 1023.4
20191212140133 50 115 0.0 2.0 0.00 0.01 0.00 94 1023.2
20191212134832 50 115 0.0 1.0 0.00 0.01 0.00 94 1023.4
20191212133151 50 115 0.0 2.0 0.00 0.01 0.00 94 1023.3
20191212131630 50 116 0.0 2.0 0.00 0.01 0.00 94 1023.1
20191212130158 49 116 0.0 1.0 0.00 0.01 0.00 94 1023.2
20191212124742 49 116 0.0 0.0 0.00 0.01 0.00 94 1023.1
20191212123159 50 116 0.0 2.0 0.00 0.01 0.00 94 1023.0
20191212121607 50 116 0.0 2.0 0.00 0.01 0.00 94 1022.9
20191212120106 50 116 0.0 1.0 0.00 0.01 0.00 94 1023.0
20191212114641 50 116 0.0 1.0 0.00 0.01 0.00 94 1023.0
20191212113108 50 116 0.0 2.0 0.00 0.01 0.00 94 1023.1
20191212111620 50 116 0.0 1.0 0.00 0.01 0.00 94 1023.3
20191212110105 51 116 0.0 1.0 0.00 0.01 0.00 94 1023.2
20191212104601 51 116 0.0 0.0 0.00 0.01 0.00 94 1023.1
20191212103111 51 116 0.0 1.0 0.00 0.01 0.00 94 1023.1
20191212101654 51 116 0.0 1.0 0.00 0.01 0.00 94 1023.0
20191212100029 51 116 0.0 1.0 0.00 0.01 0.00 94 1022.8
20191212094524 51 116 0.0 1.0 0.00 0.01 0.00 94 1022.8
20191212093024 51 116 1.0 2.0 0.00 0.01 0.00 94 1022.9
20191212091544 51 116 0.0 2.0 0.00 0.01 0.00 94 1022.7
20191212090154 51 116 1.0 2.0 0.00 0.01 0.00 94 1022.7
20191212084519 52 128 1.0 2.0 0.00 0.01 0.00 94 1022.7
20191212083023 51 128 0.0 2.0 0.00 0.01 0.00 94 1022.7
20191212081516 52 128 0.0 2.0 0.00 0.01 0.00 93 1022.6
20191212080020 52 128 0.0 2.0 0.00 0.01 0.01 93 1022.7
20191212074508 52 128 1.0 3.0 0.00 0.01 0.01 93 1022.8
20191212073022 52 86 0.0 2.0 0.00 0.01 0.01 94 1022.9
20191212071505 53 86 0.0 4.0 0.00 0.01 0.01 94 1023.0
20191212070012 53 5 1.0 2.0 0.00 0.01 0.01 94 1023.3
20191212064506 53 5 0.0 2.0 0.00 0.01 0.01 94 1023.2
20191212063004 53 304 0.0 1.0 0.00 0.01 0.01 94 1023.2
20191212061503 54 304 1.0 3.0 0.00 0.01 0.01 94 1023.1
20191212060004 54 254 0.0 0.0 0.00 0.01 0.01 94 1022.7
20191212054502 54 254 0.0 0.0 0.00 0.01 0.01 94 1023.0